IRIDIUM 109

Last updated on Sun Jun 21 2026 00:03:13 GMT+0000 (Coordinated Universal Time)

1 41919U 17003C 26171.29849818 .00000059 00000+0 14086-4 0 9997 2 41919 86.3963 87.2150 0002270 82.8400 277.3054 14.34218080493642
UTC large
Height (km)
Speed (km/s)
/
Latitude / Longitude
Inclination (degrees)
Orbital Period (minutes)
Azimuth
Elevation
Range (km)
Doppler Factor

Next 0 passes for location: London (51.5072 / 0.1276)

No passes found over London.
IRIDIUM 109